Location: Cathedral Gorge
(37.8167°N, 114.4167°W)
Time: 10:53:43
(UTC-08:00)

N. Korean satellite - Visible Passes

Search period start: 13 December 2017 00:00
Search period end: 23 December 2017 00:00
Orbit: 461 x 513 km, 97.2° (Epoch: 12 December)

Date Brightness Start Highest point End Pass type
(mag) Time Alt. Az. Time Alt. Az. Time Alt. Az.
13 Dec 7.8 16:55:19 10° SE 16:58:17 23° ENE 17:01:17 10° NNE visible
13 Dec 9.4 18:28:58 10° SW 18:31:42 20° W 18:34:29 10° NW visible
14 Dec 8.4 05:57:08 10° NNE 06:00:36 37° E 06:03:59 10° SSE visible
14 Dec 8.1 18:04:34 10° SSW 18:08:03 39° W 18:11:35 10° NNW visible
15 Dec 9.7 05:34:16 10° NE 05:36:55 19° E 05:39:32 10° SE visible
15 Dec 6.6 17:40:46 10° S 17:44:27 85° WSW 17:48:14 10° NNW visible
16 Dec 6.9 17:17:24 10° SSE 17:20:57 45° ENE 17:24:33 10° N visible
16 Dec 10.2 18:54:24 10° W 18:54:41 10° W 18:54:58 10° W visible
17 Dec 7.8 16:54:33 10° SE 16:57:31 23° ENE 17:00:32 10° NNE visible
17 Dec 9.4 18:28:09 10° SW 18:30:57 20° W 18:33:46 10° NW visible
18 Dec 8.4 05:56:24 10° NNE 05:59:49 36° E 06:03:10 10° SSE visible
18 Dec 8.1 18:03:46 10° S 18:07:16 40° W 18:10:50 10° NNW visible
19 Dec 9.7 05:33:33 10° NE 05:36:08 18° E 05:38:40 10° SE visible
19 Dec 6.6 17:39:58 10° S 17:43:41 86° WSW 17:47:27 10° NNW visible
20 Dec 6.9 17:16:36 10° SSE 17:20:10 44° ENE 17:23:46 10° N visible
20 Dec 10.2 18:53:17 10° W 18:53:53 10° W 18:54:30 10° W visible
21 Dec 6.8 06:18:57 10° NNE 06:22:37 79° ESE 06:26:10 10° S visible
21 Dec 7.8 16:53:46 10° ESE 16:56:44 23° ENE 16:59:44 10° NNE visible
21 Dec 9.4 18:27:18 10° SW 18:30:08 20° W 18:33:00 10° NW visible
22 Dec 8.4 05:55:37 10° NNE 05:58:59 35° E 06:02:17 10° SSE visible
22 Dec 8.0 18:02:55 10° S 18:06:27 40° W 18:10:02 10° NNW visible
